Location: Bannatyne
(13.0833°N, 59.5333°W)
Time: 04:13:34
(UTC+00:00)

Vanguard 3 - Pass Details

Date: 27 January 2020
Orbit: 508 x 3263 km, 33.3° (Epoch: 16 February)

Event Time Altitude Azimuth Distance (km) Brightness Sun altitude
Rises 17:20:33 0° 222° (SW) 5,084 11.8 54.1°
Reaches altitude 10° 17:23:26 10° 218° (SW) 4,400 11.7 53.7°
Maximum altitude 17:36:34 63° 140° (SE) 2,995 11.0 52.0°
Drops below altitude 10° 17:55:51 10° 64° (ENE) 6,200 11.4 49.2°
Sets 18:00:47 0° 62° (ENE) 7,198 11.6 48.4°
